Time,TemperatureF,DewpointF,PressureIn,WindDirection,WindDirectionDegrees,WindSpeedMPH,WindSpeedGustMPH,Humidity,HourlyPrecipIn,Conditions,Clouds,dailyrainin,SoftwareType,DateUTC
2013-02-26 00:00:00,25.7,24.3,30.31,East,95,0.0,0.0,94,0.00,,,0.02,meteohub,2013-02-26 05:00:00,
2013-02-26 00:01:00,25.7,24.3,30.30,East,94,0.0,0.0,94,0.00,,,0.02,meteohub,2013-02-26 05:01:00,
2013-02-26 00:02:00,25.7,24.3,30.30,East,94,0.0,0.0,94,0.00,,,0.02,meteohub,2013-02-26 05:02:00,
2013-02-26 00:07:00,25.7,24.3,30.31,East,94,0.0,0.0,94,0.00,,,0.00,meteohub,2013-02-26 05:07:00,
2013-02-26 00:12:00,25.5,24.1,30.31,East,94,0.0,0.0,94,0.00,,,0.00,meteohub,2013-02-26 05:12:00,
2013-02-26 00:17:00,25.5,24.1,30.31,East,94,0.0,0.0,94,0.00,,,0.00,meteohub,2013-02-26 05:17:00,
2013-02-26 00:22:00,25.5,24.1,30.31,East,95,0.0,0.0,94,0.00,,,0.00,meteohub,2013-02-26 05:22:00,
2013-02-26 00:27:00,25.5,24.1,30.31,East,94,0.0,0.0,94,0.00,,,0.00,meteohub,2013-02-26 05:27:00,
2013-02-26 00:33:00,25.3,23.9,30.31,East,94,0.0,0.0,94,0.00,,,0.00,meteohub,2013-02-26 05:33:00,
2013-02-26 00:38:00,25.3,23.9,30.31,East,95,0.0,0.0,94,0.00,,,0.00,meteohub,2013-02-26 05:38:00,
2013-02-26 00:43:00,25.3,23.9,30.32,East,94,0.0,0.0,94,0.00,,,0.00,meteohub,2013-02-26 05:43:00,
2013-02-26 00:48:00,25.2,23.7,30.32,East,94,0.0,0.0,94,0.00,,,0.00,meteohub,2013-02-26 05:48:00,
2013-02-26 00:53:00,25.2,23.7,30.32,East,94,0.0,0.0,94,0.00,,,0.00,meteohub,2013-02-26 05:53:00,
2013-02-26 00:58:00,25.3,23.9,30.32,East,94,0.0,0.0,94,0.00,,,0.00,meteohub,2013-02-26 05:58:00,
2013-02-26 01:03:00,25.3,23.9,30.32,East,94,0.0,0.0,94,0.00,,,0.00,meteohub,2013-02-26 06:03:00,
2013-02-26 01:08:00,25.3,23.9,30.32,East,94,0.0,0.0,94,0.00,,,0.00,meteohub,2013-02-26 06:08:00,
2013-02-26 01:13:00,25.3,23.9,30.32,East,94,0.0,0.0,94,0.00,,,0.00,meteohub,2013-02-26 06:13:00,
2013-02-26 01:18:00,25.2,23.7,30.31,East,94,0.0,0.0,94,0.00,,,0.00,meteohub,2013-02-26 06:18:00,
2013-02-26 01:23:00,25.2,23.7,30.31,East,94,0.0,0.0,94,0.00,,,0.00,meteohub,2013-02-26 06:23:00,
2013-02-26 01:28:00,25.2,23.7,30.31,East,94,0.0,0.0,94,0.00,,,0.00,meteohub,2013-02-26 06:28:00,
2013-02-26 01:33:00,25.2,23.7,30.31,East,94,0.0,0.0,94,0.00,,,0.00,meteohub,2013-02-26 06:33:00,
2013-02-26 01:38:00,25.2,23.7,30.31,East,94,0.0,0.0,94,0.00,,,0.00,meteohub,2013-02-26 06:38:00,
2013-02-26 01:43:00,25.0,23.5,30.31,East,94,0.0,0.0,94,0.00,,,0.00,meteohub,2013-02-26 06:43:00,
2013-02-26 01:48:00,25.0,23.5,30.30,East,94,0.0,0.0,94,0.00,,,0.00,meteohub,2013-02-26 06:48:00,
2013-02-26 01:53:00,24.8,23.4,30.30,East,94,0.0,0.0,94,0.00,,,0.00,meteohub,2013-02-26 06:53:00,
2013-02-26 01:59:00,24.8,23.4,30.30,East,94,0.0,0.0,94,0.00,,,0.00,meteohub,2013-02-26 06:59:00,
2013-02-26 02:04:00,24.6,23.2,30.30,East,94,0.0,0.0,94,0.00,,,0.00,meteohub,2013-02-26 07:04:00,
2013-02-26 02:09:00,24.6,23.2,30.30,East,94,0.0,0.0,94,0.00,,,0.00,meteohub,2013-02-26 07:09:00,
2013-02-26 02:14:00,24.4,23.0,30.30,East,94,0.0,0.0,94,0.00,,,0.00,meteohub,2013-02-26 07:14:00,
2013-02-26 02:19:00,24.4,23.0,30.30,East,94,0.0,0.0,94,0.00,,,0.00,meteohub,2013-02-26 07:19:00,
2013-02-26 02:24:00,24.4,23.0,30.30,East,94,0.0,0.0,94,0.00,,,0.00,meteohub,2013-02-26 07:24:00,
2013-02-26 02:29:00,24.4,23.0,30.30,East,94,0.0,0.0,94,0.00,,,0.00,meteohub,2013-02-26 07:29:00,
2013-02-26 02:34:00,24.3,22.8,30.30,East,95,0.0,0.0,94,0.00,,,0.00,meteohub,2013-02-26 07:34:00,
2013-02-26 02:39:00,24.3,22.8,30.30,East,94,0.0,0.0,94,0.00,,,0.00,meteohub,2013-02-26 07:39:00,
2013-02-26 02:44:00,24.3,22.8,30.30,East,94,0.0,0.0,94,0.00,,,0.00,meteohub,2013-02-26 07:44:00,
2013-02-26 02:49:00,24.1,22.6,30.30,East,94,0.0,0.0,94,0.00,,,0.00,meteohub,2013-02-26 07:49:00,
2013-02-26 02:54:00,24.1,22.6,30.30,East,94,0.0,0.0,94,0.00,,,0.00,meteohub,2013-02-26 07:54:00,
2013-02-26 02:59:00,24.1,22.6,30.30,East,94,0.0,0.0,94,0.00,,,0.00,meteohub,2013-02-26 07:59:00,
2013-02-26 03:04:00,24.1,22.6,30.30,East,94,0.0,0.0,94,0.00,,,0.00,meteohub,2013-02-26 08:04:00,
2013-02-26 03:09:00,23.9,22.5,30.31,East,94,0.0,0.0,94,0.00,,,0.00,meteohub,2013-02-26 08:09:00,
2013-02-26 03:14:00,23.9,22.5,30.32,East,94,0.0,0.0,94,0.00,,,0.00,meteohub,2013-02-26 08:14:00,
2013-02-26 03:20:00,23.9,22.5,30.32,East,94,0.0,0.0,94,0.00,,,0.00,meteohub,2013-02-26 08:20:00,
2013-02-26 03:25:00,23.9,22.5,30.33,East,94,0.0,0.0,94,0.00,,,0.00,meteohub,2013-02-26 08:25:00,
2013-02-26 03:30:00,23.9,22.5,30.34,East,94,0.0,0.0,94,0.00,,,0.00,meteohub,2013-02-26 08:30:00,
2013-02-26 03:35:00,23.9,22.5,30.34,East,94,0.0,0.0,94,0.00,,,0.00,meteohub,2013-02-26 08:35:00,
2013-02-26 03:40:00,23.7,22.3,30.34,East,94,0.0,0.0,94,0.00,,,0.00,meteohub,2013-02-26 08:40:00,
2013-02-26 03:45:00,23.7,22.3,30.34,East,94,0.0,0.0,94,0.00,,,0.00,meteohub,2013-02-26 08:45:00,
2013-02-26 03:50:00,23.7,22.3,30.34,East,94,0.0,0.0,94,0.00,,,0.00,meteohub,2013-02-26 08:50:00,
2013-02-26 03:55:00,23.5,22.1,30.34,East,94,0.0,0.0,94,0.00,,,0.00,meteohub,2013-02-26 08:55:00,
2013-02-26 04:00:00,23.5,22.1,30.34,East,94,0.0,0.0,94,0.00,,,0.00,meteohub,2013-02-26 09:00:00,
2013-02-26 04:05:00,23.5,22.1,30.35,East,94,0.0,0.0,94,0.00,,,0.00,meteohub,2013-02-26 09:05:00,
2013-02-26 04:10:00,23.5,22.1,30.35,East,94,0.0,0.0,94,0.00,,,0.00,meteohub,2013-02-26 09:10:00,
2013-02-26 04:15:00,23.4,21.9,30.35,East,94,0.0,0.0,94,0.00,,,0.00,meteohub,2013-02-26 09:15:00,
2013-02-26 04:20:00,23.4,21.9,30.36,East,95,0.0,0.0,94,0.00,,,0.00,meteohub,2013-02-26 09:20:00,
2013-02-26 04:25:00,23.4,21.9,30.36,East,94,0.0,0.0,94,0.00,,,0.00,meteohub,2013-02-26 09:25:00,
2013-02-26 04:30:00,23.4,21.9,30.36,East,94,0.0,0.0,94,0.00,,,0.00,meteohub,2013-02-26 09:30:00,
2013-02-26 04:35:00,23.4,21.9,30.37,East,94,0.0,0.0,94,0.00,,,0.00,meteohub,2013-02-26 09:35:00,
2013-02-26 04:40:00,23.4,21.9,30.35,East,94,0.0,0.0,94,0.00,,,0.00,meteohub,2013-02-26 09:40:00,
2013-02-26 04:46:00,23.2,21.7,30.37,East,94,0.0,0.0,94,0.00,,,0.00,meteohub,2013-02-26 09:46:00,
2013-02-26 04:51:00,23.2,21.7,30.36,East,94,0.0,0.0,94,0.00,,,0.00,meteohub,2013-02-26 09:51:00,
2013-02-26 04:56:00,23.2,21.7,30.35,East,94,0.0,0.0,94,0.00,,,0.00,meteohub,2013-02-26 09:56:00,
2013-02-26 05:01:00,23.2,21.7,30.35,East,94,0.0,0.0,94,0.00,,,0.00,meteohub,2013-02-26 10:01:00,
2013-02-26 05:06:00,23.0,21.6,30.35,East,94,0.0,0.0,94,0.00,,,0.00,meteohub,2013-02-26 10:06:00,
2013-02-26 05:11:00,23.0,21.6,30.35,East,94,0.0,0.0,94,0.00,,,0.00,meteohub,2013-02-26 10:11:00,
2013-02-26 05:16:00,22.8,21.4,30.35,East,94,0.0,0.0,94,0.00,,,0.00,meteohub,2013-02-26 10:16:00,
2013-02-26 05:21:00,22.8,21.4,30.35,East,94,0.0,0.0,94,0.00,,,0.00,meteohub,2013-02-26 10:21:00,
2013-02-26 05:26:00,22.8,21.4,30.35,East,94,0.0,0.0,94,0.00,,,0.00,meteohub,2013-02-26 10:26:00,
2013-02-26 05:31:00,22.8,21.4,30.35,East,94,0.0,0.0,94,0.00,,,0.00,meteohub,2013-02-26 10:31:00,
2013-02-26 05:36:00,22.8,21.4,30.35,East,94,0.0,0.0,94,0.00,,,0.00,meteohub,2013-02-26 10:36:00,
2013-02-26 05:41:00,22.8,21.4,30.35,East,94,0.0,0.0,94,0.00,,,0.00,meteohub,2013-02-26 10:41:00,
2013-02-26 05:46:00,22.8,21.4,30.35,East,94,0.0,0.0,94,0.00,,,0.00,meteohub,2013-02-26 10:46:00,
2013-02-26 05:51:00,22.8,21.6,30.35,East,95,1.0,0.0,95,0.00,,,0.00,meteohub,2013-02-26 10:51:00,
2013-02-26 05:56:00,22.8,21.6,30.35,East,94,0.0,2.0,95,0.00,,,0.00,meteohub,2013-02-26 10:56:00,
2013-02-26 06:01:00,22.8,21.4,30.36,East,94,0.0,2.0,94,0.00,,,0.00,meteohub,2013-02-26 11:01:00,
2013-02-26 06:07:00,22.6,21.2,30.36,East,94,0.0,2.0,94,0.00,,,0.00,meteohub,2013-02-26 11:07:00,
2013-02-26 06:12:00,22.6,21.2,30.37,East,94,0.0,0.0,94,0.00,,,0.00,meteohub,2013-02-26 11:12:00,
2013-02-26 06:17:00,22.6,21.2,30.37,East,94,0.0,0.0,94,0.00,,,0.00,meteohub,2013-02-26 11:17:00,
2013-02-26 06:22:00,22.6,21.2,30.37,East,94,0.0,1.0,94,0.00,,,0.00,meteohub,2013-02-26 11:22:00,
2013-02-26 06:27:00,22.6,21.2,30.37,East,94,0.0,1.0,94,0.00,,,0.00,meteohub,2013-02-26 11:27:00,
2013-02-26 06:32:00,22.8,21.6,30.37,East,94,0.0,0.0,95,0.00,,,0.00,meteohub,2013-02-26 11:32:00,
2013-02-26 06:37:00,22.8,21.6,30.37,East,94,0.0,0.0,95,0.00,,,0.00,meteohub,2013-02-26 11:37:00,
2013-02-26 06:42:00,23.0,21.7,30.37,East,94,0.0,0.0,95,0.00,,,0.00,meteohub,2013-02-26 11:42:00,
2013-02-26 06:47:00,23.2,21.9,30.37,East,94,0.0,1.0,95,0.00,,,0.00,meteohub,2013-02-26 11:47:00,
2013-02-26 06:52:00,23.4,22.1,30.37,East,94,2.0,2.0,95,0.00,,,0.00,meteohub,2013-02-26 11:52:00,
2013-02-26 06:57:00,23.5,22.3,30.37,East,94,0.0,2.0,95,0.00,,,0.00,meteohub,2013-02-26 11:57:00,
2013-02-26 07:02:00,23.7,22.5,30.37,East,94,1.0,2.0,95,0.00,,,0.00,meteohub,2013-02-26 12:02:00,
2013-02-26 07:07:00,23.9,22.6,30.37,East,94,0.0,2.0,95,0.00,,,0.00,meteohub,2013-02-26 12:07:00,
2013-02-26 07:12:00,24.3,23.0,30.37,East,94,0.0,2.0,95,0.00,,,0.00,meteohub,2013-02-26 12:12:00,
2013-02-26 07:17:00,24.8,23.5,30.38,East,94,0.0,2.0,95,0.00,,,0.00,meteohub,2013-02-26 12:17:00,
2013-02-26 07:22:00,25.3,24.1,30.38,East,94,0.0,1.0,95,0.00,,,0.00,meteohub,2013-02-26 12:22:00,
2013-02-26 07:27:00,26.1,24.8,30.38,East,94,0.0,1.0,95,0.00,,,0.00,meteohub,2013-02-26 12:27:00,
2013-02-26 07:32:00,27.0,25.7,30.38,East,94,1.0,1.0,95,0.00,,,0.00,meteohub,2013-02-26 12:32:00,
2013-02-26 07:37:00,27.7,26.4,30.38,East,94,1.0,1.0,95,0.00,,,0.00,meteohub,2013-02-26 12:37:00,
2013-02-26 07:42:00,28.2,27.0,30.38,East,94,0.0,1.0,95,0.00,,,0.00,meteohub,2013-02-26 12:42:00,
2013-02-26 07:47:00,28.9,27.7,30.38,East,94,0.0,1.0,95,0.00,,,0.00,meteohub,2013-02-26 12:47:00,
2013-02-26 07:52:00,29.8,28.8,30.38,East,94,0.0,1.0,96,0.00,,,0.00,meteohub,2013-02-26 12:52:00,
2013-02-26 07:57:00,30.7,29.7,30.38,East,94,0.0,1.0,96,0.00,,,0.00,meteohub,2013-02-26 12:57:00,
2013-02-26 08:02:00,31.6,30.6,30.39,East,94,0.0,1.0,96,0.00,,,0.00,meteohub,2013-02-26 13:02:00,
2013-02-26 08:07:00,31.8,30.6,30.39,East,94,0.0,2.0,95,0.00,,,0.00,meteohub,2013-02-26 13:07:00,
2013-02-26 08:12:00,32.5,31.3,30.38,East,94,0.0,2.0,95,0.00,,,0.00,meteohub,2013-02-26 13:12:00,
2013-02-26 08:17:00,32.9,31.6,30.39,East,94,1.0,2.0,95,0.00,,,0.00,meteohub,2013-02-26 13:17:00,
2013-02-26 08:22:00,33.4,32.2,30.39,East,94,1.0,2.0,95,0.00,,,0.00,meteohub,2013-02-26 13:22:00,
2013-02-26 08:27:00,34.3,33.1,30.39,East,94,1.0,3.0,95,0.00,,,0.00,meteohub,2013-02-26 13:27:00,
2013-02-26 08:32:00,35.2,33.4,30.39,East,94,2.0,3.0,93,0.00,,,0.00,meteohub,2013-02-26 13:32:00,
2013-02-26 08:37:00,36.1,33.8,30.39,East,85,1.0,3.0,91,0.00,,,0.00,meteohub,2013-02-26 13:37:00,
2013-02-26 08:42:00,36.7,33.4,30.39,East,94,2.0,5.0,88,0.00,,,0.00,meteohub,2013-02-26 13:42:00,
2013-02-26 08:47:00,37.2,32.9,30.38,East,89,2.0,5.0,84,0.00,,,0.00,meteohub,2013-02-26 13:47:00,
2013-02-26 08:52:00,37.8,32.7,30.39,ENE,72,2.0,5.0,82,0.00,,,0.00,meteohub,2013-02-26 13:52:00,
2013-02-26 08:57:00,38.1,32.5,30.39,East,92,2.0,5.0,80,0.00,,,0.00,meteohub,2013-02-26 13:57:00,
2013-02-26 09:02:00,38.5,32.2,30.40,East,84,1.0,5.0,78,0.00,,,0.00,meteohub,2013-02-26 14:02:00,
2013-02-26 09:07:00,38.7,31.8,30.40,ENE,67,2.0,5.0,76,0.00,,,0.00,meteohub,2013-02-26 14:07:00,
2013-02-26 09:12:00,39.0,31.5,30.40,East,96,3.0,6.0,74,0.00,,,0.00,meteohub,2013-02-26 14:12:00,
2013-02-26 09:17:00,38.8,30.2,30.40,ENE,68,4.0,7.0,71,0.00,,,0.00,meteohub,2013-02-26 14:17:00,
2013-02-26 09:22:00,38.8,29.8,30.40,East,84,6.0,7.0,70,0.00,,,0.00,meteohub,2013-02-26 14:22:00,
2013-02-26 09:27:00,39.2,30.2,30.40,East,88,2.0,7.0,70,0.00,,,0.00,meteohub,2013-02-26 14:27:00,
2013-02-26 09:32:00,39.7,30.7,30.40,East,82,2.0,7.0,70,0.00,,,0.00,meteohub,2013-02-26 14:32:00,
2013-02-26 09:37:00,40.6,30.9,30.40,ENE,75,2.0,7.0,68,0.00,,,0.00,meteohub,2013-02-26 14:37:00,
2013-02-26 09:42:00,40.8,30.7,30.40,SW,231,7.0,7.0,67,0.00,,,0.00,meteohub,2013-02-26 14:42:00,
2013-02-26 09:47:00,40.8,30.4,30.40,West,280,2.0,7.0,66,0.00,,,0.00,meteohub,2013-02-26 14:47:00,
2013-02-26 09:52:00,41.0,29.8,30.40,East,89,3.0,7.0,64,0.00,,,0.00,meteohub,2013-02-26 14:52:00,
2013-02-26 09:57:00,41.4,30.6,30.39,East,83,6.0,7.0,65,0.00,,,0.00,meteohub,2013-02-26 14:57:00,
2013-02-26 10:02:00,41.4,29.7,30.40,East,82,2.0,7.0,63,0.00,,,0.00,meteohub,2013-02-26 15:02:00,
2013-02-26 10:07:00,41.4,30.6,30.39,SE,141,2.0,7.0,65,0.00,,,0.00,meteohub,2013-02-26 15:07:00,
2013-02-26 10:12:00,41.4,30.6,30.39,ENE,69,2.0,7.0,65,0.00,,,0.00,meteohub,2013-02-26 15:12:00,
2013-02-26 10:17:00,41.0,30.2,30.40,NE,46,6.0,6.0,65,0.00,,,0.00,meteohub,2013-02-26 15:17:00,
2013-02-26 10:22:00,40.8,30.4,30.40,ENE,74,4.0,8.0,66,0.00,,,0.00,meteohub,2013-02-26 15:22:00,
2013-02-26 10:27:00,40.5,29.7,30.40,ENE,70,3.0,9.0,65,0.00,,,0.00,meteohub,2013-02-26 15:27:00,
2013-02-26 10:32:00,40.6,30.2,30.40,East,96,3.0,9.0,66,0.00,,,0.00,meteohub,2013-02-26 15:32:00,
2013-02-26 10:37:00,41.2,30.7,30.40,ENE,75,3.0,9.0,66,0.00,,,0.00,meteohub,2013-02-26 15:37:00,
2013-02-26 10:42:00,41.2,30.0,30.40,SE,126,6.0,8.0,64,0.00,,,0.00,meteohub,2013-02-26 15:42:00,
2013-02-26 10:47:00,41.5,30.2,30.39,SE,130,5.0,9.0,64,0.00,,,0.00,meteohub,2013-02-26 15:47:00,
2013-02-26 10:52:00,41.5,29.5,30.40,East,80,5.0,9.0,62,0.00,,,0.00,meteohub,2013-02-26 15:52:00,
2013-02-26 10:57:00,41.9,30.6,30.40,East,89,2.0,9.0,64,0.00,,,0.00,meteohub,2013-02-26 15:57:00,
2013-02-26 11:02:00,41.9,30.2,30.40,East,81,3.0,8.0,63,0.00,,,0.00,meteohub,2013-02-26 16:02:00,
2013-02-26 11:07:00,41.5,30.2,30.40,ENE,76,3.0,8.0,64,0.00,,,0.00,meteohub,2013-02-26 16:07:00,
2013-02-26 11:12:00,41.5,30.2,30.39,East,83,2.0,8.0,64,0.00,,,0.00,meteohub,2013-02-26 16:12:00,
2013-02-26 11:17:00,41.5,30.2,30.39,ESE,108,1.0,9.0,64,0.00,,,0.00,meteohub,2013-02-26 16:17:00,
2013-02-26 11:22:00,41.5,30.2,30.39,ENE,73,1.0,9.0,64,0.00,,,0.00,meteohub,2013-02-26 16:22:00,
2013-02-26 11:27:00,41.5,30.2,30.38,East,90,2.0,9.0,64,0.00,,,0.00,meteohub,2013-02-26 16:27:00,
2013-02-26 11:32:00,42.3,30.9,30.38,ESE,103,5.0,9.0,64,0.00,,,0.00,meteohub,2013-02-26 16:32:00,
2013-02-26 11:37:00,42.3,30.6,30.37,ENE,62,4.0,9.0,63,0.00,,,0.00,meteohub,2013-02-26 16:37:00,
2013-02-26 11:42:00,42.6,30.2,30.38,North,5,1.0,8.0,61,0.00,,,0.00,meteohub,2013-02-26 16:42:00,
2013-02-26 11:47:00,42.4,29.5,30.38,East,96,5.0,8.0,60,0.00,,,0.00,meteohub,2013-02-26 16:47:00,
2013-02-26 11:52:00,42.3,29.8,30.38,ESE,117,2.0,9.0,61,0.00,,,0.00,meteohub,2013-02-26 16:52:00,
2013-02-26 11:57:00,42.4,30.0,30.38,ESE,105,3.0,9.0,61,0.00,,,0.00,meteohub,2013-02-26 16:57:00,
2013-02-26 12:02:00,42.1,29.1,30.38,ENE,74,3.0,9.0,60,0.00,,,0.00,meteohub,2013-02-26 17:02:00,
2013-02-26 12:07:00,41.5,29.1,30.38,East,101,3.0,8.0,61,0.00,,,0.00,meteohub,2013-02-26 17:07:00,
2013-02-26 12:12:00,41.4,29.3,30.38,ESE,106,5.0,8.0,62,0.00,,,0.00,meteohub,2013-02-26 17:12:00,
2013-02-26 12:17:00,41.9,29.8,30.38,SSW,196,1.0,8.0,62,0.00,,,0.00,meteohub,2013-02-26 17:17:00,
2013-02-26 12:22:00,42.4,29.5,30.38,SE,126,4.0,8.0,60,0.00,,,0.00,meteohub,2013-02-26 17:22:00,
2013-02-26 12:27:00,42.8,29.5,30.38,SSW,210,2.0,7.0,59,0.00,,,0.00,meteohub,2013-02-26 17:27:00,
2013-02-26 12:32:00,42.6,28.9,30.38,SW,226,4.0,10.0,58,0.00,,,0.00,meteohub,2013-02-26 17:32:00,
2013-02-26 12:37:00,42.1,27.9,30.38,West,260,6.0,12.0,57,0.00,,,0.00,meteohub,2013-02-26 17:37:00,
2013-02-26 12:42:00,41.5,28.2,30.38,WSW,250,8.0,12.0,59,0.00,,,0.00,meteohub,2013-02-26 17:42:00,
2013-02-26 12:47:00,41.2,27.9,30.39,SW,220,7.0,14.0,59,0.00,,,0.00,meteohub,2013-02-26 17:47:00,
2013-02-26 12:52:00,41.2,27.5,30.39,SW,217,9.0,14.0,58,0.00,,,0.00,meteohub,2013-02-26 17:52:00,
2013-02-26 12:57:00,41.5,28.2,30.38,WSW,246,2.0,14.0,59,0.00,,,0.00,meteohub,2013-02-26 17:57:00,
2013-02-26 13:02:00,41.9,28.6,30.38,SSE,159,2.0,13.0,59,0.00,,,0.00,meteohub,2013-02-26 18:02:00,
2013-02-26 13:07:00,42.4,29.1,30.38,SW,221,1.0,13.0,59,0.00,,,0.00,meteohub,2013-02-26 18:07:00,
2013-02-26 13:12:00,42.4,29.5,30.38,WSW,253,7.0,13.0,60,0.00,,,0.00,meteohub,2013-02-26 18:12:00,
2013-02-26 13:17:00,42.3,28.9,30.38,South,191,6.0,13.0,59,0.00,,,0.00,meteohub,2013-02-26 18:17:00,
2013-02-26 13:22:00,42.3,28.6,30.37,SW,222,7.0,13.0,58,0.00,,,0.00,meteohub,2013-02-26 18:22:00,
2013-02-26 13:27:00,42.3,28.0,30.37,SW,229,11.0,13.0,57,0.00,,,0.00,meteohub,2013-02-26 18:27:00,
2013-02-26 13:32:00,41.9,28.2,30.37,SW,235,7.0,12.0,58,0.00,,,0.00,meteohub,2013-02-26 18:32:00,
2013-02-26 13:37:00,41.9,28.2,30.37,WSW,249,6.0,12.0,58,0.00,,,0.00,meteohub,2013-02-26 18:37:00,
2013-02-26 13:42:00,41.5,27.5,30.38,West,264,5.0,12.0,57,0.00,,,0.00,meteohub,2013-02-26 18:42:00,
2013-02-26 13:47:00,41.4,28.0,30.37,WSW,247,2.0,12.0,59,0.00,,,0.00,meteohub,2013-02-26 18:47:00,
2013-02-26 13:52:00,41.7,28.4,30.37,SW,222,7.0,12.0,59,0.00,,,0.00,meteohub,2013-02-26 18:52:00,
2013-02-26 13:57:00,41.9,28.2,30.37,SW,225,11.0,12.0,58,0.00,,,0.00,meteohub,2013-02-26 18:57:00,
2013-02-26 14:02:00,41.5,27.9,30.37,SW,223,6.0,12.0,58,0.00,,,0.00,meteohub,2013-02-26 19:02:00,
2013-02-26 14:07:00,41.4,28.0,30.37,SW,222,5.0,12.0,59,0.00,,,0.00,meteohub,2013-02-26 19:07:00,
2013-02-26 14:12:00,41.2,27.9,30.36,SW,223,8.0,12.0,59,0.00,,,0.00,meteohub,2013-02-26 19:12:00,
2013-02-26 14:17:00,41.0,28.9,30.36,WSW,250,6.0,12.0,62,0.00,,,0.00,meteohub,2013-02-26 19:17:00,
2013-02-26 14:22:00,40.8,28.4,30.36,SW,216,3.0,12.0,61,0.00,,,0.00,meteohub,2013-02-26 19:22:00,
2013-02-26 14:27:00,41.0,28.9,30.36,SW,225,9.0,12.0,62,0.00,,,0.00,meteohub,2013-02-26 19:27:00,
2013-02-26 14:32:00,40.8,28.8,30.37,WSW,247,8.0,11.0,62,0.00,,,0.00,meteohub,2013-02-26 19:32:00,
2013-02-26 14:37:00,40.8,29.1,30.36,SW,225,11.0,11.0,63,0.00,,,0.00,meteohub,2013-02-26 19:37:00,
2013-02-26 14:42:00,40.6,28.6,30.36,SW,235,5.0,11.0,62,0.00,,,0.00,meteohub,2013-02-26 19:42:00,
2013-02-26 14:47:00,40.6,29.1,30.35,SSW,206,6.0,11.0,63,0.00,,,0.00,meteohub,2013-02-26 19:47:00,
2013-02-26 14:52:00,40.5,29.3,30.35,WSW,244,6.0,11.0,64,0.00,,,0.00,meteohub,2013-02-26 19:52:00,
2013-02-26 14:57:00,40.3,29.5,30.35,SW,229,2.0,11.0,65,0.00,,,0.00,meteohub,2013-02-26 19:57:00,
2013-02-26 15:02:00,40.3,29.5,30.34,SSW,203,2.0,11.0,65,0.00,,,0.00,meteohub,2013-02-26 20:02:00,
2013-02-26 15:07:00,40.5,29.7,30.34,WSW,241,5.0,11.0,65,0.00,,,0.00,meteohub,2013-02-26 20:07:00,
2013-02-26 15:12:00,40.5,29.3,30.34,SW,232,7.0,11.0,64,0.00,,,0.00,meteohub,2013-02-26 20:12:00,
2013-02-26 15:17:00,40.5,29.3,30.34,South,181,2.0,10.0,64,0.00,,,0.00,meteohub,2013-02-26 20:17:00,
2013-02-26 15:22:00,40.5,29.3,30.34,WSW,237,7.0,10.0,64,0.00,,,0.00,meteohub,2013-02-26 20:22:00,
2013-02-26 15:27:00,40.3,29.5,30.34,SW,232,2.0,10.0,65,0.00,,,0.00,meteohub,2013-02-26 20:27:00,
2013-02-26 15:32:00,40.3,29.8,30.34,SW,234,7.0,10.0,66,0.00,,,0.00,meteohub,2013-02-26 20:32:00,
2013-02-26 15:37:00,39.9,29.8,30.35,SSE,153,2.0,10.0,67,0.00,,,0.00,meteohub,2013-02-26 20:37:00,
2013-02-26 15:42:00,39.9,29.8,30.35,WSW,239,6.0,10.0,67,0.00,,,0.00,meteohub,2013-02-26 20:42:00,
2013-02-26 15:47:00,39.7,30.0,30.35,SW,226,3.0,10.0,68,0.00,,,0.00,meteohub,2013-02-26 20:47:00,
2013-02-26 15:52:00,39.7,30.0,30.35,West,259,4.0,10.0,68,0.00,,,0.00,meteohub,2013-02-26 20:52:00,
2013-02-26 15:57:00,39.6,30.6,30.35,SSW,204,5.0,10.0,70,0.00,,,0.00,meteohub,2013-02-26 20:57:00,
2013-02-26 16:02:00,39.2,30.6,30.35,WSW,251,6.0,10.0,71,0.00,,,0.00,meteohub,2013-02-26 21:02:00,
2013-02-26 16:07:00,39.0,30.4,30.35,SW,227,6.0,10.0,71,0.00,,,0.00,meteohub,2013-02-26 21:07:00,
2013-02-26 16:12:00,38.8,30.6,30.35,WSW,241,7.0,10.0,72,0.00,,,0.00,meteohub,2013-02-26 21:12:00,
2013-02-26 16:17:00,38.7,30.4,30.35,SW,221,11.0,11.0,72,0.00,,,0.00,meteohub,2013-02-26 21:17:00,
2013-02-26 16:22:00,38.7,30.7,30.34,SW,220,4.0,11.0,73,0.00,,,0.00,meteohub,2013-02-26 21:22:00,
2013-02-26 16:27:00,38.5,30.6,30.34,SW,223,4.0,11.0,73,0.00,,,0.00,meteohub,2013-02-26 21:27:00,
2013-02-26 16:32:00,38.5,30.9,30.34,WSW,238,1.0,11.0,74,0.00,,,0.00,meteohub,2013-02-26 21:32:00,
2013-02-26 16:37:00,38.3,30.7,30.34,SW,214,3.0,9.0,74,0.00,,,0.00,meteohub,2013-02-26 21:37:00,
2013-02-26 16:42:00,38.1,30.6,30.34,SW,223,4.0,10.0,74,0.00,,,0.00,meteohub,2013-02-26 21:42:00,
2013-02-26 16:47:00,38.1,30.6,30.34,SW,229,2.0,10.0,74,0.00,,,0.00,meteohub,2013-02-26 21:47:00,
2013-02-26 16:52:00,37.9,30.4,30.33,SW,224,1.0,10.0,74,0.00,,,0.00,meteohub,2013-02-26 21:52:00,
2013-02-26 16:57:00,37.9,30.4,30.33,WSW,257,3.0,8.0,74,0.00,,,0.00,meteohub,2013-02-26 21:57:00,
2013-02-26 17:02:00,37.8,30.2,30.33,SW,222,2.0,8.0,74,0.00,,,0.00,meteohub,2013-02-26 22:02:00,
2013-02-26 17:07:00,37.8,30.2,30.33,SW,229,2.0,6.0,74,0.00,,,0.00,meteohub,2013-02-26 22:07:00,
2013-02-26 17:12:00,37.8,30.2,30.33,SW,229,0.0,6.0,74,0.00,,,0.00,meteohub,2013-02-26 22:12:00,
2013-02-26 17:17:00,37.6,30.4,30.33,SSW,194,3.0,6.0,75,0.00,,,0.00,meteohub,2013-02-26 22:17:00,
2013-02-26 17:22:00,37.4,30.2,30.34,SW,231,2.0,4.0,75,0.00,,,0.00,meteohub,2013-02-26 22:22:00,
2013-02-26 17:27:00,37.4,30.2,30.34,SW,231,2.0,4.0,75,0.00,,,0.00,meteohub,2013-02-26 22:27:00,
2013-02-26 17:32:00,37.2,30.4,30.34,SSW,207,0.0,4.0,76,0.00,,,0.00,meteohub,2013-02-26 22:32:00,
2013-02-26 17:37:00,37.2,30.4,30.33,SSW,207,1.0,3.0,76,0.00,,,0.00,meteohub,2013-02-26 22:37:00,
2013-02-26 17:42:00,37.0,30.2,30.33,SW,215,1.0,3.0,76,0.00,,,0.00,meteohub,2013-02-26 22:42:00,
2013-02-26 17:47:00,37.0,30.2,30.33,WSW,256,0.0,3.0,76,0.00,,,0.00,meteohub,2013-02-26 22:47:00,
2013-02-26 17:52:00,36.9,30.0,30.33,WSW,256,1.0,3.0,76,0.00,,,0.00,meteohub,2013-02-26 22:52:00,
2013-02-26 17:57:00,36.7,30.2,30.33,WSW,256,0.0,3.0,77,0.00,,,0.00,meteohub,2013-02-26 22:57:00,
2013-02-26 18:02:00,36.7,30.2,30.33,WSW,256,0.0,1.0,77,0.00,,,0.00,meteohub,2013-02-26 23:02:00,
2013-02-26 18:07:00,36.5,30.0,30.34,WSW,256,0.0,1.0,77,0.00,,,0.00,meteohub,2013-02-26 23:07:00,
2013-02-26 18:12:00,36.3,29.8,30.34,WSW,256,0.0,0.0,77,0.00,,,0.00,meteohub,2013-02-26 23:12:00,
2013-02-26 18:17:00,36.1,30.0,30.34,WSW,256,0.0,2.0,78,0.00,,,0.00,meteohub,2013-02-26 23:17:00,
2013-02-26 18:22:00,36.0,29.8,30.33,WSW,256,0.0,2.0,78,0.00,,,0.00,meteohub,2013-02-26 23:22:00,
2013-02-26 18:27:00,35.4,29.5,30.33,WSW,256,2.0,2.0,79,0.00,,,0.00,meteohub,2013-02-26 23:27:00,
2013-02-26 18:32:00,35.2,29.7,30.32,WSW,256,2.0,2.0,80,0.00,,,0.00,meteohub,2013-02-26 23:32:00,
2013-02-26 18:37:00,34.9,29.7,30.32,WSW,256,1.0,2.0,81,0.00,,,0.00,meteohub,2013-02-26 23:37:00,
2013-02-26 18:43:00,34.9,30.0,30.32,WSW,256,0.0,2.0,82,0.00,,,0.00,meteohub,2013-02-26 23:43:00,
2013-02-26 18:48:00,34.9,30.2,30.32,WSW,256,0.0,2.0,83,0.00,,,0.00,meteohub,2013-02-26 23:48:00,
2013-02-26 18:53:00,35.1,30.4,30.32,WSW,256,1.0,2.0,83,0.00,,,0.00,meteohub,2013-02-26 23:53:00,
2013-02-26 18:58:00,35.1,30.4,30.32,WSW,256,0.0,2.0,83,0.00,,,0.00,meteohub,2013-02-26 23:58:00,
2013-02-26 19:03:00,35.1,30.4,30.31,WSW,256,0.0,1.0,83,0.00,,,0.00,meteohub,2013-02-27 00:03:00,
2013-02-26 19:08:00,35.1,30.4,30.31,WSW,256,0.0,2.0,83,0.00,,,0.00,meteohub,2013-02-27 00:08:00,
2013-02-26 19:13:00,35.1,30.4,30.31,WSW,256,0.0,2.0,83,0.00,,,0.00,meteohub,2013-02-27 00:13:00,
2013-02-26 19:18:00,34.9,30.2,30.30,WSW,256,1.0,2.0,83,0.00,,,0.00,meteohub,2013-02-27 00:18:00,
2013-02-26 19:23:00,35.1,30.7,30.30,WSW,256,0.0,2.0,84,0.00,,,0.00,meteohub,2013-02-27 00:23:00,
2013-02-26 19:28:00,35.1,30.7,30.30,WSW,256,0.0,2.0,84,0.00,,,0.00,meteohub,2013-02-27 00:28:00,
2013-02-26 19:33:00,35.2,30.9,30.31,WSW,256,1.0,2.0,84,0.00,,,0.00,meteohub,2013-02-27 00:33:00,
2013-02-26 19:38:00,35.2,30.6,30.31,WSW,256,1.0,1.0,83,0.00,,,0.00,meteohub,2013-02-27 00:38:00,
2013-02-26 19:43:00,35.4,30.7,30.31,WSW,256,0.0,2.0,83,0.00,,,0.00,meteohub,2013-02-27 00:43:00,
2013-02-26 19:48:00,35.4,30.7,30.31,WSW,256,0.0,2.0,83,0.00,,,0.00,meteohub,2013-02-27 00:48:00,
2013-02-26 19:53:00,35.4,30.7,30.30,WSW,256,0.0,2.0,83,0.00,,,0.00,meteohub,2013-02-27 00:53:00,
2013-02-26 19:59:00,35.2,30.6,30.30,WSW,256,0.0,1.0,83,0.00,,,0.00,meteohub,2013-02-27 00:59:00,
2013-02-26 20:04:00,35.2,30.9,30.30,WSW,256,0.0,2.0,84,0.00,,,0.00,meteohub,2013-02-27 01:04:00,
2013-02-26 20:09:00,35.2,30.9,30.30,ESE,117,0.0,2.0,84,0.00,,,0.00,meteohub,2013-02-27 01:09:00,
2013-02-26 20:14:00,35.4,31.1,30.30,WSW,253,0.0,2.0,84,0.00,,,0.00,meteohub,2013-02-27 01:14:00,
2013-02-26 20:19:00,35.6,31.3,30.30,WSW,253,0.0,3.0,84,0.00,,,0.00,meteohub,2013-02-27 01:19:00,
2013-02-26 20:24:00,35.8,31.5,30.30,WSW,253,1.0,3.0,84,0.00,,,0.00,meteohub,2013-02-27 01:24:00,
2013-02-26 20:29:00,35.8,31.5,30.30,WSW,253,0.0,3.0,84,0.00,,,0.00,meteohub,2013-02-27 01:29:00,
2013-02-26 20:34:00,35.8,31.5,30.30,WSW,253,0.0,2.0,84,0.00,,,0.00,meteohub,2013-02-27 01:34:00,
2013-02-26 20:39:00,35.8,31.5,30.30,WSW,253,0.0,2.0,84,0.00,,,0.00,meteohub,2013-02-27 01:39:00,
2013-02-26 20:44:00,35.8,31.5,30.30,WSW,253,0.0,1.0,84,0.00,,,0.00,meteohub,2013-02-27 01:44:00,
2013-02-26 20:49:00,35.8,31.5,30.30,WSW,253,0.0,2.0,84,0.00,,,0.00,meteohub,2013-02-27 01:49:00,
2013-02-26 20:55:00,35.8,31.5,30.30,WSW,253,0.0,2.0,84,0.00,,,0.00,meteohub,2013-02-27 01:55:00,
2013-02-26 21:00:00,35.8,31.5,30.30,WSW,253,0.0,2.0,84,0.00,,,0.00,meteohub,2013-02-27 02:00:00,
2013-02-26 21:05:00,35.8,31.5,30.29,WSW,253,0.0,1.0,84,0.00,,,0.00,meteohub,2013-02-27 02:05:00,
2013-02-26 21:10:00,35.8,31.5,30.29,WSW,253,1.0,1.0,84,0.00,,,0.00,meteohub,2013-02-27 02:10:00,
2013-02-26 21:15:00,35.6,31.3,30.28,WSW,253,1.0,2.0,84,0.00,,,0.00,meteohub,2013-02-27 02:15:00,
2013-02-26 21:21:00,35.8,31.6,30.28,WSW,253,1.0,2.0,85,0.00,,,0.00,meteohub,2013-02-27 02:21:00,
2013-02-26 21:27:00,36.0,31.8,30.27,WSW,253,0.0,2.0,85,0.00,,,0.00,meteohub,2013-02-27 02:27:00,
2013-02-26 21:32:00,36.0,31.8,30.27,WSW,252,0.0,3.0,85,0.00,,,0.00,meteohub,2013-02-27 02:32:00,
2013-02-26 21:37:00,36.1,32.0,30.27,WSW,252,1.0,3.0,85,0.00,,,0.00,meteohub,2013-02-27 02:37:00,
2013-02-26 21:42:00,36.1,32.0,30.27,WSW,252,0.0,3.0,85,0.00,,,0.00,meteohub,2013-02-27 02:42:00,
2013-02-26 21:47:00,36.3,32.2,30.27,WSW,252,0.0,2.0,85,0.00,,,0.00,meteohub,2013-02-27 02:47:00,
2013-02-26 21:52:00,36.5,32.4,30.27,WSW,252,0.0,2.0,85,0.00,,,0.00,meteohub,2013-02-27 02:52:00,
2013-02-26 21:57:00,36.7,32.5,30.27,NE,51,0.0,2.0,85,0.00,,,0.00,meteohub,2013-02-27 02:57:00,
2013-02-26 22:02:00,36.7,32.9,30.27,NE,51,0.0,2.0,86,0.00,,,0.00,meteohub,2013-02-27 03:02:00,
2013-02-26 22:07:00,36.9,32.7,30.26,NE,51,0.0,2.0,85,0.00,,,0.00,meteohub,2013-02-27 03:07:00,
2013-02-26 22:12:00,36.9,33.1,30.26,SE,138,1.0,2.0,86,0.00,,,0.00,meteohub,2013-02-27 03:12:00,
2013-02-26 22:17:00,37.0,33.6,30.25,SW,232,0.0,5.0,87,0.00,,,0.00,meteohub,2013-02-27 03:17:00,
2013-02-26 22:22:00,37.6,34.0,30.25,WSW,248,3.0,5.0,87,0.00,,,0.00,meteohub,2013-02-27 03:22:00,
2013-02-26 22:28:00,38.3,35.1,30.24,SSW,197,6.0,7.0,88,0.00,,,0.00,meteohub,2013-02-27 03:28:00,
2013-02-26 22:33:00,38.7,35.4,30.24,ENE,72,1.0,10.0,88,0.00,,,0.00,meteohub,2013-02-27 03:33:00,
2013-02-26 22:38:00,38.7,35.4,30.23,SSW,201,5.0,10.0,88,0.00,,,0.00,meteohub,2013-02-27 03:38:00,
2013-02-26 22:43:00,38.8,35.6,30.22,SW,219,4.0,9.0,88,0.00,,,0.00,meteohub,2013-02-27 03:43:00,
2013-02-26 22:48:00,38.8,35.2,30.23,SW,224,1.0,10.0,87,0.00,,,0.00,meteohub,2013-02-27 03:48:00,
2013-02-26 22:53:00,38.8,35.2,30.23,SE,128,2.0,10.0,87,0.00,,,0.00,meteohub,2013-02-27 03:53:00,
2013-02-26 23:55:00,39.0,35.2,30.20,SSW,197,3.0,9.0,86,0.00,,,0.00,meteohub,2013-02-27 04:55:00,